Time,TemperatureF,DewpointF,PressureIn,WindDirection,WindDirectionDegrees,WindSpeedMPH,WindSpeedGustMPH,Humidity,HourlyPrecipIn,Conditions,Clouds,dailyrainin,SoftwareType,DateUTC
2013-03-31 00:04:00,61.2,52.0,17.73,North,-999,-999.0,-999.0,45,0.00,,,0.00,meteohub,2013-03-31 07:04:00,
2013-03-31 00:09:00,61.0,52.0,17.73,North,-999,-999.0,-999.0,45,0.00,,,0.00,meteohub,2013-03-31 07:09:00,
2013-03-31 00:15:00,60.8,51.8,17.73,North,-999,-999.0,-999.0,45,0.00,,,0.00,meteohub,2013-03-31 07:15:00,
2013-03-31 00:20:00,60.6,52.3,17.73,North,-999,-999.0,-999.0,45,0.04,,,0.00,meteohub,2013-03-31 07:20:00,
2013-03-31 00:25:00,60.4,52.5,17.73,North,-999,-999.0,-999.0,45,0.04,,,0.04,meteohub,2013-03-31 07:25:00,
2013-03-31 00:30:00,60.4,52.5,17.73,North,-999,-999.0,-999.0,45,0.04,,,0.04,meteohub,2013-03-31 07:30:00,
2013-03-31 00:36:00,60.4,52.9,17.73,North,-999,-999.0,-999.0,45,0.04,,,0.04,meteohub,2013-03-31 07:36:00,
2013-03-31 00:41:00,60.4,53.2,17.73,North,-999,-999.0,-999.0,45,0.04,,,0.04,meteohub,2013-03-31 07:41:00,
2013-03-31 00:46:00,60.4,53.2,17.73,North,-999,-999.0,-999.0,45,0.04,,,0.04,meteohub,2013-03-31 07:46:00,
2013-03-31 00:51:00,60.3,53.1,17.73,North,-999,-999.0,-999.0,45,0.04,,,0.04,meteohub,2013-03-31 07:51:00,
2013-03-31 00:56:00,60.1,53.2,17.73,North,-999,-999.0,-999.0,45,0.04,,,0.04,meteohub,2013-03-31 07:56:00,
2013-03-31 01:02:00,59.9,53.4,17.73,North,-999,-999.0,-999.0,45,0.04,,,0.04,meteohub,2013-03-31 08:02:00,
2013-03-31 01:07:00,59.9,53.4,17.73,North,-999,-999.0,-999.0,45,0.04,,,0.04,meteohub,2013-03-31 08:07:00,
2013-03-31 01:12:00,60.1,53.6,17.73,North,-999,-999.0,-999.0,45,0.04,,,0.04,meteohub,2013-03-31 08:12:00,
2013-03-31 01:17:00,60.1,53.6,17.73,North,-999,-999.0,-999.0,45,0.04,,,0.04,meteohub,2013-03-31 08:17:00,
2013-03-31 01:22:00,59.9,53.8,17.73,North,-999,-999.0,-999.0,45,0.00,,,0.04,meteohub,2013-03-31 08:22:00,
2013-03-31 01:27:00,59.9,53.8,17.73,North,-999,-999.0,-999.0,45,0.00,,,0.04,meteohub,2013-03-31 08:27:00,
2013-03-31 01:32:00,59.9,53.8,17.73,North,-999,-999.0,-999.0,45,0.00,,,0.04,meteohub,2013-03-31 08:32:00,
2013-03-31 01:37:00,59.7,53.6,17.73,North,-999,-999.0,-999.0,45,0.00,,,0.04,meteohub,2013-03-31 08:37:00,
2013-03-31 01:42:00,59.7,53.6,17.73,North,-999,-999.0,-999.0,45,0.00,,,0.04,meteohub,2013-03-31 08:42:00,
2013-03-31 01:47:00,59.7,53.6,17.73,North,-999,-999.0,-999.0,46,0.00,,,0.04,meteohub,2013-03-31 08:47:00,
2013-03-31 01:52:00,59.7,53.6,17.73,North,-999,-999.0,-999.0,46,0.00,,,0.04,meteohub,2013-03-31 08:52:00,
2013-03-31 01:57:00,59.7,54.0,17.73,North,-999,-999.0,-999.0,46,0.00,,,0.04,meteohub,2013-03-31 08:57:00,
2013-03-31 02:02:00,59.5,53.8,17.73,North,-999,-999.0,-999.0,46,0.00,,,0.04,meteohub,2013-03-31 09:02:00,
2013-03-31 02:07:00,59.5,53.8,17.73,North,-999,-999.0,-999.0,46,0.00,,,0.04,meteohub,2013-03-31 09:07:00,
2013-03-31 02:12:00,59.5,53.8,17.73,North,-999,-999.0,-999.0,46,0.00,,,0.04,meteohub,2013-03-31 09:12:00,
2013-03-31 02:17:00,59.5,53.8,17.73,North,-999,-999.0,-999.0,46,0.00,,,0.04,meteohub,2013-03-31 09:17:00,
2013-03-31 02:22:00,59.4,53.6,17.73,North,-999,-999.0,-999.0,46,0.00,,,0.04,meteohub,2013-03-31 09:22:00,
2013-03-31 02:27:00,59.4,53.8,17.73,North,-999,-999.0,-999.0,46,0.00,,,0.04,meteohub,2013-03-31 09:27:00,
2013-03-31 02:32:00,59.4,53.8,17.73,North,-999,-999.0,-999.0,46,0.00,,,0.04,meteohub,2013-03-31 09:32:00,
2013-03-31 02:37:00,59.2,53.4,17.73,North,-999,-999.0,-999.0,46,0.00,,,0.04,meteohub,2013-03-31 09:37:00,
2013-03-31 02:42:00,59.0,53.2,17.73,North,-999,-999.0,-999.0,46,0.00,,,0.04,meteohub,2013-03-31 09:42:00,
2013-03-31 02:48:00,59.0,53.2,17.73,North,-999,-999.0,-999.0,46,0.00,,,0.04,meteohub,2013-03-31 09:48:00,
2013-03-31 02:53:00,58.8,53.1,17.73,North,-999,-999.0,-999.0,46,0.00,,,0.04,meteohub,2013-03-31 09:53:00,
2013-03-31 02:58:00,58.6,52.9,17.73,North,-999,-999.0,-999.0,46,0.00,,,0.04,meteohub,2013-03-31 09:58:00,
2013-03-31 03:04:00,58.5,52.7,17.73,North,-999,-999.0,-999.0,46,0.00,,,0.04,meteohub,2013-03-31 10:04:00,
2013-03-31 03:09:00,58.3,52.5,17.73,North,-999,-999.0,-999.0,46,0.00,,,0.04,meteohub,2013-03-31 10:09:00,
2013-03-31 03:14:00,58.1,52.3,17.73,North,-999,-999.0,-999.0,46,0.00,,,0.04,meteohub,2013-03-31 10:14:00,
2013-03-31 03:19:00,57.9,52.2,17.73,North,-999,-999.0,-999.0,46,0.00,,,0.04,meteohub,2013-03-31 10:19:00,
2013-03-31 03:24:00,57.9,52.2,17.73,North,-999,-999.0,-999.0,46,0.00,,,0.04,meteohub,2013-03-31 10:24:00,
2013-03-31 03:29:00,57.7,52.0,17.73,North,-999,-999.0,-999.0,46,0.00,,,0.04,meteohub,2013-03-31 10:29:00,
2013-03-31 03:34:00,57.7,52.0,17.73,North,-999,-999.0,-999.0,46,0.00,,,0.04,meteohub,2013-03-31 10:34:00,
2013-03-31 03:40:00,57.6,51.8,17.73,North,-999,-999.0,-999.0,46,0.00,,,0.04,meteohub,2013-03-31 10:40:00,
2013-03-31 03:45:00,57.6,51.8,17.73,North,-999,-999.0,-999.0,46,0.00,,,0.04,meteohub,2013-03-31 10:45:00,
2013-03-31 03:50:00,57.6,52.2,17.73,North,-999,-999.0,-999.0,46,0.00,,,0.04,meteohub,2013-03-31 10:50:00,
2013-03-31 03:55:00,57.6,52.2,17.73,North,-999,-999.0,-999.0,46,0.00,,,0.04,meteohub,2013-03-31 10:55:00,
2013-03-31 04:00:00,57.6,52.2,17.73,North,-999,-999.0,-999.0,46,0.00,,,0.04,meteohub,2013-03-31 11:00:00,
2013-03-31 04:06:00,57.4,52.0,17.73,North,-999,-999.0,-999.0,46,0.00,,,0.04,meteohub,2013-03-31 11:06:00,
2013-03-31 04:11:00,57.4,52.0,17.73,North,-999,-999.0,-999.0,46,0.00,,,0.04,meteohub,2013-03-31 11:11:00,
2013-03-31 04:16:00,57.4,52.0,17.73,North,-999,-999.0,-999.0,46,0.00,,,0.04,meteohub,2013-03-31 11:16:00,
2013-03-31 04:21:00,57.2,51.8,17.73,North,-999,-999.0,-999.0,46,0.00,,,0.04,meteohub,2013-03-31 11:21:00,
2013-03-31 04:27:00,57.2,51.8,17.73,North,-999,-999.0,-999.0,46,0.00,,,0.04,meteohub,2013-03-31 11:27:00,
2013-03-31 04:32:00,57.0,51.6,17.73,North,-999,-999.0,-999.0,46,0.00,,,0.04,meteohub,2013-03-31 11:32:00,
2013-03-31 04:37:00,57.0,51.6,17.73,North,-999,-999.0,-999.0,46,0.00,,,0.04,meteohub,2013-03-31 11:37:00,
2013-03-31 04:42:00,56.8,51.4,17.73,North,-999,-999.0,-999.0,46,0.00,,,0.04,meteohub,2013-03-31 11:42:00,
2013-03-31 04:47:00,56.8,51.4,17.73,North,-999,-999.0,-999.0,46,0.00,,,0.04,meteohub,2013-03-31 11:47:00,
2013-03-31 04:52:00,56.8,51.4,17.73,North,-999,-999.0,-999.0,46,0.00,,,0.04,meteohub,2013-03-31 11:52:00,
2013-03-31 04:58:00,56.7,51.3,17.73,North,-999,-999.0,-999.0,46,0.00,,,0.04,meteohub,2013-03-31 11:58:00,
2013-03-31 05:03:00,56.7,51.3,17.73,North,-999,-999.0,-999.0,46,0.00,,,0.04,meteohub,2013-03-31 12:03:00,
2013-03-31 05:08:00,56.7,51.3,17.73,North,-999,-999.0,-999.0,46,0.00,,,0.04,meteohub,2013-03-31 12:08:00,
2013-03-31 05:14:00,56.7,51.3,17.73,North,-999,-999.0,-999.0,46,0.00,,,0.04,meteohub,2013-03-31 12:14:00,
2013-03-31 05:19:00,56.7,51.3,17.73,North,-999,-999.0,-999.0,46,0.00,,,0.04,meteohub,2013-03-31 12:19:00,
2013-03-31 05:24:00,56.7,51.3,17.73,North,-999,-999.0,-999.0,46,0.00,,,0.04,meteohub,2013-03-31 12:24:00,
2013-03-31 05:30:00,56.7,51.3,17.73,North,-999,-999.0,-999.0,46,0.00,,,0.04,meteohub,2013-03-31 12:30:00,
2013-03-31 05:35:00,56.7,51.3,17.73,North,-999,-999.0,-999.0,46,0.00,,,0.04,meteohub,2013-03-31 12:35:00,
2013-03-31 05:40:00,56.7,51.3,17.73,North,-999,-999.0,-999.0,46,0.00,,,0.04,meteohub,2013-03-31 12:40:00,
2013-03-31 05:45:00,56.7,51.6,17.73,North,-999,-999.0,-999.0,46,0.00,,,0.04,meteohub,2013-03-31 12:45:00,
2013-03-31 05:51:00,56.7,51.6,17.73,North,-999,-999.0,-999.0,46,0.00,,,0.04,meteohub,2013-03-31 12:51:00,
2013-03-31 05:56:00,56.7,51.3,17.73,North,-999,-999.0,-999.0,46,0.00,,,0.04,meteohub,2013-03-31 12:56:00,
2013-03-31 06:01:00,56.7,51.3,17.73,North,-999,-999.0,-999.0,46,0.00,,,0.04,meteohub,2013-03-31 13:01:00,
2013-03-31 06:07:00,56.5,51.1,17.73,North,-999,-999.0,-999.0,46,0.00,,,0.04,meteohub,2013-03-31 13:07:00,
2013-03-31 06:12:00,56.5,51.1,17.73,North,-999,-999.0,-999.0,46,0.00,,,0.04,meteohub,2013-03-31 13:12:00,
2013-03-31 06:17:00,56.3,50.9,17.73,North,-999,-999.0,-999.0,46,0.00,,,0.04,meteohub,2013-03-31 13:17:00,
2013-03-31 06:22:00,56.3,50.9,17.73,North,-999,-999.0,-999.0,46,0.00,,,0.04,meteohub,2013-03-31 13:22:00,
2013-03-31 06:27:00,56.1,50.7,17.73,North,-999,-999.0,-999.0,46,0.00,,,0.04,meteohub,2013-03-31 13:27:00,
2013-03-31 06:32:00,55.9,50.5,17.73,North,-999,-999.0,-999.0,46,0.00,,,0.04,meteohub,2013-03-31 13:32:00,
2013-03-31 06:37:00,55.9,50.5,17.73,North,-999,-999.0,-999.0,46,0.00,,,0.04,meteohub,2013-03-31 13:37:00,
2013-03-31 06:42:00,55.9,50.5,17.73,North,-999,-999.0,-999.0,46,0.00,,,0.04,meteohub,2013-03-31 13:42:00,
2013-03-31 06:47:00,55.9,50.5,17.73,North,-999,-999.0,-999.0,46,0.00,,,0.04,meteohub,2013-03-31 13:47:00,
2013-03-31 06:52:00,55.8,50.4,17.73,North,-999,-999.0,-999.0,46,0.00,,,0.04,meteohub,2013-03-31 13:52:00,
2013-03-31 06:57:00,55.8,50.4,17.73,North,-999,-999.0,-999.0,46,0.00,,,0.04,meteohub,2013-03-31 13:57:00,
2013-03-31 07:02:00,55.6,50.5,17.73,North,-999,-999.0,-999.0,46,0.00,,,0.04,meteohub,2013-03-31 14:02:00,
2013-03-31 07:08:00,55.6,50.5,17.73,North,-999,-999.0,-999.0,46,0.00,,,0.04,meteohub,2013-03-31 14:08:00,
2013-03-31 07:13:00,55.6,50.5,17.73,North,-999,-999.0,-999.0,47,0.00,,,0.04,meteohub,2013-03-31 14:13:00,
2013-03-31 07:18:00,55.6,50.5,17.73,North,-999,-999.0,-999.0,47,0.00,,,0.04,meteohub,2013-03-31 14:18:00,
2013-03-31 07:23:00,55.6,50.9,17.73,North,-999,-999.0,-999.0,47,0.00,,,0.04,meteohub,2013-03-31 14:23:00,
2013-03-31 07:28:00,55.8,51.1,17.73,North,-999,-999.0,-999.0,47,0.00,,,0.04,meteohub,2013-03-31 14:28:00,
2013-03-31 07:34:00,55.8,51.1,17.73,North,-999,-999.0,-999.0,47,0.00,,,0.04,meteohub,2013-03-31 14:34:00,
2013-03-31 07:39:00,55.9,51.3,17.73,North,-999,-999.0,-999.0,47,0.00,,,0.04,meteohub,2013-03-31 14:39:00,
2013-03-31 07:44:00,55.9,51.3,17.73,North,-999,-999.0,-999.0,47,0.00,,,0.04,meteohub,2013-03-31 14:44:00,
2013-03-31 07:49:00,56.1,51.6,17.73,North,-999,-999.0,-999.0,46,0.00,,,0.04,meteohub,2013-03-31 14:49:00,
2013-03-31 07:54:00,56.3,51.8,17.73,North,-999,-999.0,-999.0,46,0.00,,,0.04,meteohub,2013-03-31 14:54:00,
2013-03-31 08:00:00,56.3,51.8,17.73,North,-999,-999.0,-999.0,46,0.00,,,0.04,meteohub,2013-03-31 15:00:00,
2013-03-31 08:05:00,56.5,52.0,17.73,North,-999,-999.0,-999.0,46,0.00,,,0.04,meteohub,2013-03-31 15:05:00,
2013-03-31 08:10:00,56.7,52.2,17.73,North,-999,-999.0,-999.0,46,0.00,,,0.04,meteohub,2013-03-31 15:10:00,
2013-03-31 08:15:00,56.8,52.3,17.73,North,-999,-999.0,-999.0,47,0.00,,,0.04,meteohub,2013-03-31 15:15:00,
2013-03-31 08:21:00,57.2,52.7,17.73,North,-999,-999.0,-999.0,47,0.00,,,0.04,meteohub,2013-03-31 15:21:00,
2013-03-31 08:26:00,57.2,52.7,17.73,North,-999,-999.0,-999.0,47,0.00,,,0.04,meteohub,2013-03-31 15:26:00,
2013-03-31 08:31:00,57.4,52.5,17.73,North,-999,-999.0,-999.0,48,0.00,,,0.04,meteohub,2013-03-31 15:31:00,
2013-03-31 08:36:00,57.6,52.7,17.73,North,-999,-999.0,-999.0,48,0.00,,,0.04,meteohub,2013-03-31 15:36:00,
2013-03-31 08:41:00,57.6,52.7,17.73,North,-999,-999.0,-999.0,48,0.00,,,0.04,meteohub,2013-03-31 15:41:00,
2013-03-31 08:47:00,57.9,53.1,17.73,North,-999,-999.0,-999.0,48,0.00,,,0.04,meteohub,2013-03-31 15:47:00,
2013-03-31 08:52:00,58.1,53.2,17.73,North,-999,-999.0,-999.0,48,0.00,,,0.04,meteohub,2013-03-31 15:52:00,
2013-03-31 08:57:00,58.5,53.2,17.73,North,-999,-999.0,-999.0,48,0.00,,,0.04,meteohub,2013-03-31 15:57:00,
2013-03-31 09:02:00,58.6,53.2,17.73,North,-999,-999.0,-999.0,48,0.00,,,0.04,meteohub,2013-03-31 16:02:00,
2013-03-31 09:07:00,59.0,53.2,17.73,North,-999,-999.0,-999.0,48,0.00,,,0.04,meteohub,2013-03-31 16:07:00,
2013-03-31 09:12:00,59.4,53.2,17.73,North,-999,-999.0,-999.0,48,0.00,,,0.04,meteohub,2013-03-31 16:12:00,
2013-03-31 09:17:00,59.5,53.1,17.73,North,-999,-999.0,-999.0,48,0.00,,,0.04,meteohub,2013-03-31 16:17:00,
2013-03-31 09:22:00,59.4,52.2,17.73,North,-999,-999.0,-999.0,48,0.00,,,0.04,meteohub,2013-03-31 16:22:00,
2013-03-31 09:27:00,59.5,51.6,17.73,North,-999,-999.0,-999.0,48,0.00,,,0.04,meteohub,2013-03-31 16:27:00,
2013-03-31 09:32:00,59.7,51.4,17.73,North,-999,-999.0,-999.0,48,0.00,,,0.04,meteohub,2013-03-31 16:32:00,
2013-03-31 09:38:00,60.1,51.8,17.73,North,-999,-999.0,-999.0,48,0.00,,,0.04,meteohub,2013-03-31 16:38:00,
2013-03-31 09:43:00,60.4,51.8,17.73,North,-999,-999.0,-999.0,48,0.00,,,0.04,meteohub,2013-03-31 16:43:00,
2013-03-31 09:48:00,60.6,51.1,17.73,North,-999,-999.0,-999.0,48,0.00,,,0.04,meteohub,2013-03-31 16:48:00,
2013-03-31 09:54:00,61.2,51.6,17.73,North,-999,-999.0,-999.0,49,0.00,,,0.04,meteohub,2013-03-31 16:54:00,
2013-03-31 09:59:00,61.5,51.6,17.73,North,-999,-999.0,-999.0,49,0.00,,,0.04,meteohub,2013-03-31 16:59:00,
2013-03-31 10:04:00,61.7,51.1,17.73,North,-999,-999.0,-999.0,48,0.00,,,0.04,meteohub,2013-03-31 17:04:00,
2013-03-31 10:09:00,62.1,51.4,17.73,North,-999,-999.0,-999.0,48,0.00,,,0.04,meteohub,2013-03-31 17:09:00,
2013-03-31 10:14:00,62.6,50.7,17.73,North,-999,-999.0,-999.0,48,0.00,,,0.04,meteohub,2013-03-31 17:14:00,
2013-03-31 10:20:00,62.8,50.4,17.73,North,-999,-999.0,-999.0,48,0.00,,,0.04,meteohub,2013-03-31 17:20:00,
2013-03-31 10:25:00,63.1,49.5,17.73,North,-999,-999.0,-999.0,48,0.00,,,0.04,meteohub,2013-03-31 17:25:00,
2013-03-31 10:30:00,63.7,50.0,17.73,North,-999,-999.0,-999.0,48,0.00,,,0.04,meteohub,2013-03-31 17:30:00,
2013-03-31 10:35:00,63.9,49.3,17.73,North,-999,-999.0,-999.0,47,0.00,,,0.04,meteohub,2013-03-31 17:35:00,
2013-03-31 10:41:00,64.2,49.6,17.73,North,-999,-999.0,-999.0,47,0.00,,,0.04,meteohub,2013-03-31 17:41:00,
2013-03-31 10:46:00,64.6,48.0,17.73,North,-999,-999.0,-999.0,47,0.00,,,0.04,meteohub,2013-03-31 17:46:00,
2013-03-31 10:52:00,65.1,46.6,17.73,North,-999,-999.0,-999.0,47,0.00,,,0.04,meteohub,2013-03-31 17:52:00,
2013-03-31 10:57:00,65.7,47.1,17.73,North,-999,-999.0,-999.0,47,0.00,,,0.04,meteohub,2013-03-31 17:57:00,
2013-03-31 11:02:00,66.2,45.3,17.73,North,-999,-999.0,-999.0,47,0.00,,,0.04,meteohub,2013-03-31 18:02:00,
2013-03-31 11:08:00,66.4,44.4,17.73,North,-999,-999.0,-999.0,47,0.00,,,0.04,meteohub,2013-03-31 18:08:00,
2013-03-31 11:13:00,66.4,44.4,17.73,North,-999,-999.0,-999.0,47,0.00,,,0.04,meteohub,2013-03-31 18:13:00,
2013-03-31 11:18:00,66.2,43.7,17.73,North,-999,-999.0,-999.0,47,0.00,,,0.04,meteohub,2013-03-31 18:18:00,
2013-03-31 11:24:00,66.2,45.3,17.73,North,-999,-999.0,-999.0,46,0.00,,,0.04,meteohub,2013-03-31 18:24:00,
2013-03-31 11:29:00,66.2,43.7,17.73,North,-999,-999.0,-999.0,46,0.00,,,0.04,meteohub,2013-03-31 18:29:00,
2013-03-31 11:34:00,66.2,44.2,17.73,North,-999,-999.0,-999.0,46,0.00,,,0.04,meteohub,2013-03-31 18:34:00,
2013-03-31 11:39:00,66.2,44.2,17.73,North,-999,-999.0,-999.0,46,0.00,,,0.04,meteohub,2013-03-31 18:39:00,
2013-03-31 11:44:00,66.6,44.1,17.73,North,-999,-999.0,-999.0,45,0.00,,,0.04,meteohub,2013-03-31 18:44:00,
2013-03-31 11:49:00,66.9,43.7,17.73,North,-999,-999.0,-999.0,45,0.00,,,0.04,meteohub,2013-03-31 18:49:00,
2013-03-31 11:55:00,67.1,41.4,17.73,North,-999,-999.0,-999.0,45,0.00,,,0.04,meteohub,2013-03-31 18:55:00,
2013-03-31 12:00:00,67.1,41.4,17.73,North,-999,-999.0,-999.0,45,0.00,,,0.04,meteohub,2013-03-31 19:00:00,
2013-03-31 12:05:00,66.9,41.2,17.73,North,-999,-999.0,-999.0,45,0.00,,,0.04,meteohub,2013-03-31 19:05:00,
2013-03-31 12:10:00,67.1,43.2,17.73,North,-999,-999.0,-999.0,44,0.00,,,0.04,meteohub,2013-03-31 19:10:00,
2013-03-31 12:16:00,67.3,44.1,17.73,North,-999,-999.0,-999.0,44,0.00,,,0.04,meteohub,2013-03-31 19:16:00,
2013-03-31 12:21:00,67.6,42.4,17.73,North,-999,-999.0,-999.0,44,0.00,,,0.04,meteohub,2013-03-31 19:21:00,
2013-03-31 12:26:00,67.8,43.3,17.73,North,-999,-999.0,-999.0,44,0.00,,,0.04,meteohub,2013-03-31 19:26:00,
2013-03-31 12:31:00,68.0,43.3,17.73,North,-999,-999.0,-999.0,44,0.00,,,0.04,meteohub,2013-03-31 19:31:00,
2013-03-31 12:37:00,68.0,42.1,17.73,North,-999,-999.0,-999.0,44,0.00,,,0.04,meteohub,2013-03-31 19:37:00,
2013-03-31 12:42:00,68.0,44.1,17.73,North,-999,-999.0,-999.0,44,0.00,,,0.04,meteohub,2013-03-31 19:42:00,
2013-03-31 12:47:00,68.4,43.7,17.73,North,-999,-999.0,-999.0,44,0.00,,,0.04,meteohub,2013-03-31 19:47:00,
2013-03-31 12:52:00,69.3,42.6,17.73,North,-999,-999.0,-999.0,44,0.00,,,0.04,meteohub,2013-03-31 19:52:00,
2013-03-31 12:57:00,70.2,43.3,17.73,North,-999,-999.0,-999.0,44,0.00,,,0.04,meteohub,2013-03-31 19:57:00,
2013-03-31 13:02:00,70.5,42.3,17.73,North,-999,-999.0,-999.0,44,0.00,,,0.04,meteohub,2013-03-31 20:02:00,
2013-03-31 13:08:00,70.3,40.6,17.73,North,-999,-999.0,-999.0,44,0.00,,,0.04,meteohub,2013-03-31 20:08:00,
2013-03-31 13:13:00,69.8,40.1,17.73,North,-999,-999.0,-999.0,44,0.00,,,0.04,meteohub,2013-03-31 20:13:00,
2013-03-31 13:18:00,70.0,40.3,17.73,North,-999,-999.0,-999.0,43,0.00,,,0.04,meteohub,2013-03-31 20:18:00,
2013-03-31 13:23:00,70.0,41.0,17.73,North,-999,-999.0,-999.0,43,0.00,,,0.04,meteohub,2013-03-31 20:23:00,
2013-03-31 13:29:00,70.0,41.0,17.73,North,-999,-999.0,-999.0,43,0.00,,,0.04,meteohub,2013-03-31 20:29:00,
2013-03-31 13:34:00,70.0,41.0,17.73,North,-999,-999.0,-999.0,43,0.00,,,0.04,meteohub,2013-03-31 20:34:00,
2013-03-31 13:39:00,70.3,42.1,17.73,North,-999,-999.0,-999.0,43,0.00,,,0.04,meteohub,2013-03-31 20:39:00,
2013-03-31 13:44:00,70.7,41.0,17.73,North,-999,-999.0,-999.0,43,0.00,,,0.04,meteohub,2013-03-31 20:44:00,
2013-03-31 13:49:00,70.7,41.7,17.73,North,-999,-999.0,-999.0,43,0.00,,,0.04,meteohub,2013-03-31 20:49:00,
2013-03-31 13:54:00,70.7,41.0,17.73,North,-999,-999.0,-999.0,43,0.00,,,0.04,meteohub,2013-03-31 20:54:00,
2013-03-31 13:59:00,70.5,40.8,17.73,North,-999,-999.0,-999.0,43,0.00,,,0.04,meteohub,2013-03-31 20:59:00,
2013-03-31 14:04:00,70.3,40.6,17.73,North,-999,-999.0,-999.0,43,0.00,,,0.04,meteohub,2013-03-31 21:04:00,
2013-03-31 14:10:00,70.2,41.9,17.73,North,-999,-999.0,-999.0,43,0.00,,,0.04,meteohub,2013-03-31 21:10:00,
2013-03-31 14:15:00,69.6,40.8,17.73,North,-999,-999.0,-999.0,43,0.00,,,0.04,meteohub,2013-03-31 21:15:00,
2013-03-31 14:20:00,69.3,40.5,17.73,North,-999,-999.0,-999.0,43,0.00,,,0.04,meteohub,2013-03-31 21:20:00,
2013-03-31 14:25:00,68.9,40.8,17.73,North,-999,-999.0,-999.0,43,0.00,,,0.04,meteohub,2013-03-31 21:25:00,
2013-03-31 14:30:00,68.9,40.8,17.73,North,-999,-999.0,-999.0,43,0.00,,,0.04,meteohub,2013-03-31 21:30:00,
2013-03-31 14:36:00,68.9,41.5,17.73,North,-999,-999.0,-999.0,43,0.00,,,0.04,meteohub,2013-03-31 21:36:00,
2013-03-31 14:42:00,68.5,40.5,17.73,North,-999,-999.0,-999.0,43,0.00,,,0.04,meteohub,2013-03-31 21:42:00,
2013-03-31 14:47:00,68.4,41.0,17.73,North,-999,-999.0,-999.0,43,0.00,,,0.04,meteohub,2013-03-31 21:47:00,
2013-03-31 14:52:00,68.0,40.8,17.73,North,-999,-999.0,-999.0,43,0.00,,,0.04,meteohub,2013-03-31 21:52:00,
2013-03-31 14:57:00,67.8,41.4,17.73,North,-999,-999.0,-999.0,43,0.00,,,0.04,meteohub,2013-03-31 21:57:00,
2013-03-31 15:02:00,67.5,40.3,17.73,North,-999,-999.0,-999.0,42,0.00,,,0.04,meteohub,2013-03-31 22:02:00,
2013-03-31 15:07:00,67.3,41.5,17.73,North,-999,-999.0,-999.0,42,0.00,,,0.04,meteohub,2013-03-31 22:07:00,
2013-03-31 15:12:00,67.1,39.9,17.73,North,-999,-999.0,-999.0,42,0.00,,,0.04,meteohub,2013-03-31 22:12:00,
2013-03-31 15:17:00,66.7,40.3,17.73,North,-999,-999.0,-999.0,42,0.00,,,0.04,meteohub,2013-03-31 22:17:00,
2013-03-31 15:23:00,66.6,40.8,17.73,North,-999,-999.0,-999.0,42,0.00,,,0.04,meteohub,2013-03-31 22:23:00,
2013-03-31 15:28:00,66.6,41.5,17.73,North,-999,-999.0,-999.0,42,0.00,,,0.04,meteohub,2013-03-31 22:28:00,
2013-03-31 15:33:00,66.6,41.5,17.73,North,-999,-999.0,-999.0,42,0.00,,,0.04,meteohub,2013-03-31 22:33:00,
2013-03-31 15:39:00,66.7,41.7,17.73,North,-999,-999.0,-999.0,42,0.00,,,0.04,meteohub,2013-03-31 22:39:00,
2013-03-31 15:44:00,66.7,41.7,17.73,North,-999,-999.0,-999.0,42,0.00,,,0.04,meteohub,2013-03-31 22:44:00,
2013-03-31 15:49:00,66.7,41.7,17.73,North,-999,-999.0,-999.0,42,0.00,,,0.04,meteohub,2013-03-31 22:49:00,
2013-03-31 15:54:00,66.7,41.7,17.73,North,-999,-999.0,-999.0,42,0.00,,,0.04,meteohub,2013-03-31 22:54:00,
2013-03-31 15:59:00,66.7,41.7,17.73,North,-999,-999.0,-999.0,42,0.00,,,0.04,meteohub,2013-03-31 22:59:00,
2013-03-31 16:05:00,66.9,41.9,17.73,North,-999,-999.0,-999.0,43,0.00,,,0.04,meteohub,2013-03-31 23:05:00,
2013-03-31 16:10:00,66.9,41.9,17.73,North,-999,-999.0,-999.0,43,0.00,,,0.04,meteohub,2013-03-31 23:10:00,
2013-03-31 16:15:00,66.9,41.9,17.73,North,-999,-999.0,-999.0,43,0.00,,,0.04,meteohub,2013-03-31 23:15:00,
2013-03-31 16:21:00,66.7,41.0,17.73,North,-999,-999.0,-999.0,43,0.00,,,0.04,meteohub,2013-03-31 23:21:00,
2013-03-31 16:26:00,66.7,40.3,17.73,North,-999,-999.0,-999.0,44,0.00,,,0.04,meteohub,2013-03-31 23:26:00,
2013-03-31 16:31:00,66.9,41.2,17.73,North,-999,-999.0,-999.0,44,0.00,,,0.04,meteohub,2013-03-31 23:31:00,
2013-03-31 16:37:00,67.3,40.8,17.73,North,-999,-999.0,-999.0,44,0.00,,,0.04,meteohub,2013-03-31 23:37:00,
2013-03-31 16:42:00,67.3,40.8,17.73,North,-999,-999.0,-999.0,44,0.00,,,0.04,meteohub,2013-03-31 23:42:00,
2013-03-31 16:47:00,67.3,40.8,17.73,North,-999,-999.0,-999.0,44,0.00,,,0.04,meteohub,2013-03-31 23:47:00,
2013-03-31 16:52:00,67.3,40.8,17.73,North,-999,-999.0,-999.0,44,0.00,,,0.04,meteohub,2013-03-31 23:52:00,
2013-03-31 16:57:00,67.5,41.7,17.73,North,-999,-999.0,-999.0,44,0.00,,,0.04,meteohub,2013-03-31 23:57:00,
2013-03-31 17:02:00,67.3,40.8,17.73,North,-999,-999.0,-999.0,44,0.00,,,0.04,meteohub,2013-04-01 00:02:00,
2013-03-31 17:07:00,67.3,40.8,17.73,North,-999,-999.0,-999.0,44,0.00,,,0.00,meteohub,2013-04-01 00:07:00,
2013-03-31 17:12:00,66.9,40.5,17.73,North,-999,-999.0,-999.0,43,0.00,,,0.00,meteohub,2013-04-01 00:12:00,
2013-03-31 17:17:00,66.7,40.3,17.73,North,-999,-999.0,-999.0,43,0.00,,,0.00,meteohub,2013-04-01 00:17:00,
2013-03-31 17:22:00,66.7,40.3,17.73,North,-999,-999.0,-999.0,42,0.00,,,0.00,meteohub,2013-04-01 00:22:00,
2013-03-31 17:27:00,66.9,39.7,17.73,North,-999,-999.0,-999.0,42,0.00,,,0.00,meteohub,2013-04-01 00:27:00,
2013-03-31 17:32:00,67.5,40.3,17.73,North,-999,-999.0,-999.0,42,0.00,,,0.00,meteohub,2013-04-01 00:32:00,
2013-03-31 17:37:00,67.6,40.5,17.73,North,-999,-999.0,-999.0,42,0.00,,,0.00,meteohub,2013-04-01 00:37:00,
2013-03-31 17:42:00,67.8,40.6,17.73,North,-999,-999.0,-999.0,42,0.00,,,0.00,meteohub,2013-04-01 00:42:00,
2013-03-31 17:47:00,67.8,39.9,17.73,North,-999,-999.0,-999.0,42,0.00,,,0.00,meteohub,2013-04-01 00:47:00,
2013-03-31 17:52:00,68.0,40.8,17.73,North,-999,-999.0,-999.0,42,0.00,,,0.00,meteohub,2013-04-01 00:52:00,
2013-03-31 17:57:00,68.0,40.1,17.73,North,-999,-999.0,-999.0,43,0.00,,,0.00,meteohub,2013-04-01 00:57:00,
2013-03-31 18:02:00,68.0,40.1,17.73,North,-999,-999.0,-999.0,43,0.00,,,0.00,meteohub,2013-04-01 01:02:00,
2013-03-31 18:07:00,67.6,40.5,17.73,North,-999,-999.0,-999.0,43,0.00,,,0.00,meteohub,2013-04-01 01:07:00,
2013-03-31 18:12:00,67.1,39.9,17.73,North,-999,-999.0,-999.0,42,0.00,,,0.00,meteohub,2013-04-01 01:12:00,
2013-03-31 18:17:00,67.1,40.6,17.73,North,-999,-999.0,-999.0,42,0.00,,,0.00,meteohub,2013-04-01 01:17:00,
2013-03-31 18:23:00,66.6,40.1,17.73,North,-999,-999.0,-999.0,42,0.00,,,0.00,meteohub,2013-04-01 01:23:00,
2013-03-31 18:28:00,66.2,39.9,17.73,North,-999,-999.0,-999.0,42,0.00,,,0.00,meteohub,2013-04-01 01:28:00,
2013-03-31 18:33:00,65.7,40.1,17.73,North,-999,-999.0,-999.0,42,0.00,,,0.00,meteohub,2013-04-01 01:33:00,
2013-03-31 18:38:00,65.5,40.5,17.73,North,-999,-999.0,-999.0,42,0.00,,,0.00,meteohub,2013-04-01 01:38:00,
2013-03-31 18:44:00,65.3,40.3,17.73,North,-999,-999.0,-999.0,42,0.00,,,0.00,meteohub,2013-04-01 01:44:00,
2013-03-31 18:49:00,65.1,40.8,17.73,North,-999,-999.0,-999.0,42,0.00,,,0.00,meteohub,2013-04-01 01:49:00,
2013-03-31 18:54:00,65.1,40.8,17.73,North,-999,-999.0,-999.0,42,0.00,,,0.00,meteohub,2013-04-01 01:54:00,
2013-03-31 18:59:00,64.9,41.4,17.73,North,-999,-999.0,-999.0,42,0.00,,,0.00,meteohub,2013-04-01 01:59:00,
2013-03-31 19:05:00,64.8,41.2,17.73,North,-999,-999.0,-999.0,42,0.00,,,0.00,meteohub,2013-04-01 02:05:00,
2013-03-31 19:10:00,64.6,41.0,17.73,North,-999,-999.0,-999.0,42,0.00,,,0.00,meteohub,2013-04-01 02:10:00,
2013-03-31 19:15:00,64.6,40.3,17.73,North,-999,-999.0,-999.0,42,0.00,,,0.00,meteohub,2013-04-01 02:15:00,
2013-03-31 19:20:00,64.2,40.6,17.73,North,-999,-999.0,-999.0,42,0.00,,,0.00,meteohub,2013-04-01 02:20:00,
2013-03-31 19:25:00,64.0,40.5,17.73,North,-999,-999.0,-999.0,42,0.00,,,0.00,meteohub,2013-04-01 02:25:00,
2013-03-31 19:31:00,63.9,41.0,17.73,North,-999,-999.0,-999.0,42,0.00,,,0.00,meteohub,2013-04-01 02:31:00,
2013-03-31 19:36:00,63.9,41.0,17.73,North,-999,-999.0,-999.0,42,0.00,,,0.00,meteohub,2013-04-01 02:36:00,
2013-03-31 19:42:00,63.7,41.4,17.73,North,-999,-999.0,-999.0,42,0.00,,,0.00,meteohub,2013-04-01 02:42:00,
2013-03-31 19:47:00,63.5,41.2,17.73,North,-999,-999.0,-999.0,42,0.00,,,0.00,meteohub,2013-04-01 02:47:00,
2013-03-31 19:52:00,63.3,41.5,17.73,North,-999,-999.0,-999.0,42,0.00,,,0.00,meteohub,2013-04-01 02:52:00,
2013-03-31 19:57:00,63.1,41.5,17.73,North,-999,-999.0,-999.0,42,0.00,,,0.00,meteohub,2013-04-01 02:57:00,
2013-03-31 20:02:00,63.1,41.5,17.73,North,-999,-999.0,-999.0,42,0.00,,,0.00,meteohub,2013-04-01 03:02:00,
2013-03-31 20:08:00,63.0,41.4,17.73,North,-999,-999.0,-999.0,42,0.00,,,0.00,meteohub,2013-04-01 03:08:00,
2013-03-31 20:13:00,63.0,41.9,17.73,North,-999,-999.0,-999.0,42,0.00,,,0.00,meteohub,2013-04-01 03:13:00,
2013-03-31 20:18:00,63.0,41.4,17.73,North,-999,-999.0,-999.0,41,0.00,,,0.00,meteohub,2013-04-01 03:18:00,
2013-03-31 20:23:00,63.0,41.4,17.73,North,-999,-999.0,-999.0,41,0.00,,,0.00,meteohub,2013-04-01 03:23:00,
2013-03-31 20:29:00,62.8,41.7,17.73,North,-999,-999.0,-999.0,41,0.00,,,0.00,meteohub,2013-04-01 03:29:00,
2013-03-31 20:34:00,62.8,42.8,17.73,North,-999,-999.0,-999.0,41,0.00,,,0.00,meteohub,2013-04-01 03:34:00,
2013-03-31 20:39:00,62.4,43.0,17.73,North,-999,-999.0,-999.0,41,0.00,,,0.00,meteohub,2013-04-01 03:39:00,
2013-03-31 20:45:00,62.4,43.5,17.73,North,-999,-999.0,-999.0,41,0.00,,,0.00,meteohub,2013-04-01 03:45:00,
2013-03-31 20:50:00,62.4,43.5,17.73,North,-999,-999.0,-999.0,41,0.00,,,0.00,meteohub,2013-04-01 03:50:00,
2013-03-31 20:55:00,62.4,43.5,17.73,North,-999,-999.0,-999.0,41,0.00,,,0.00,meteohub,2013-04-01 03:55:00,
2013-03-31 21:00:00,62.2,43.3,17.73,North,-999,-999.0,-999.0,41,0.00,,,0.00,meteohub,2013-04-01 04:00:00,
2013-03-31 21:01:00,62.2,43.3,17.73,North,-999,-999.0,-999.0,41,0.00,,,0.00,meteohub,2013-04-01 04:01:00,
2013-03-31 21:02:00,62.2,43.3,17.73,North,-999,-999.0,-999.0,41,0.00,,,0.00,meteohub,2013-04-01 04:02:00,
2013-03-31 21:03:00,62.2,43.3,17.73,North,-999,-999.0,-999.0,41,0.00,,,0.00,meteohub,2013-04-01 04:03:00,
2013-03-31 21:08:00,62.2,43.3,17.73,North,-999,-999.0,-999.0,41,0.00,,,0.00,meteohub,2013-04-01 04:08:00,
2013-03-31 21:13:00,62.2,43.9,17.73,North,-999,-999.0,-999.0,41,0.00,,,0.00,meteohub,2013-04-01 04:13:00,
2013-03-31 21:18:00,62.1,43.2,17.73,North,-999,-999.0,-999.0,41,0.00,,,0.00,meteohub,2013-04-01 04:18:00,
2013-03-31 21:23:00,62.1,43.7,17.73,North,-999,-999.0,-999.0,41,0.00,,,0.00,meteohub,2013-04-01 04:23:00,
2013-03-31 21:28:00,62.1,43.7,17.73,North,-999,-999.0,-999.0,41,0.00,,,0.00,meteohub,2013-04-01 04:28:00,
2013-03-31 21:34:00,61.9,43.5,17.73,North,-999,-999.0,-999.0,41,0.00,,,0.00,meteohub,2013-04-01 04:34:00,
2013-03-31 21:39:00,61.9,44.1,17.73,North,-999,-999.0,-999.0,41,0.00,,,0.00,meteohub,2013-04-01 04:39:00,
2013-03-31 21:44:00,61.7,45.3,17.73,North,-999,-999.0,-999.0,41,0.00,,,0.00,meteohub,2013-04-01 04:44:00,
2013-03-31 21:49:00,61.3,47.3,17.73,North,-999,-999.0,-999.0,41,0.00,,,0.00,meteohub,2013-04-01 04:49:00,
2013-03-31 21:54:00,60.8,47.7,17.73,North,-999,-999.0,-999.0,41,0.00,,,0.00,meteohub,2013-04-01 04:54:00,
2013-03-31 22:00:00,60.6,48.4,17.73,North,-999,-999.0,-999.0,41,0.04,,,0.04,meteohub,2013-04-01 05:00:00,
2013-03-31 22:05:00,60.4,49.1,17.73,North,-999,-999.0,-999.0,41,0.04,,,0.04,meteohub,2013-04-01 05:05:00,
2013-03-31 22:10:00,60.3,48.9,17.73,North,-999,-999.0,-999.0,41,0.04,,,0.04,meteohub,2013-04-01 05:10:00,
2013-03-31 22:15:00,60.3,49.3,17.73,North,-999,-999.0,-999.0,41,0.04,,,0.04,meteohub,2013-04-01 05:15:00,
2013-03-31 22:20:00,60.1,49.5,17.73,North,-999,-999.0,-999.0,41,0.04,,,0.04,meteohub,2013-04-01 05:20:00,
2013-03-31 22:25:00,60.1,49.5,17.73,North,-999,-999.0,-999.0,42,0.04,,,0.04,meteohub,2013-04-01 05:25:00,
2013-03-31 22:31:00,59.9,49.6,17.73,North,-999,-999.0,-999.0,42,0.04,,,0.04,meteohub,2013-04-01 05:31:00,
2013-03-31 22:36:00,59.7,50.0,17.73,North,-999,-999.0,-999.0,42,0.04,,,0.04,meteohub,2013-04-01 05:36:00,
2013-03-31 22:41:00,59.7,50.0,17.73,North,-999,-999.0,-999.0,42,0.04,,,0.04,meteohub,2013-04-01 05:41:00,
2013-03-31 22:46:00,59.7,50.4,17.73,North,-999,-999.0,-999.0,42,0.04,,,0.04,meteohub,2013-04-01 05:46:00,
2013-03-31 22:52:00,59.7,50.7,17.73,North,-999,-999.0,-999.0,42,0.04,,,0.04,meteohub,2013-04-01 05:52:00,
2013-03-31 22:57:00,59.5,50.9,17.73,North,-999,-999.0,-999.0,42,0.00,,,0.04,meteohub,2013-04-01 05:57:00,
2013-03-31 23:02:00,59.5,50.9,17.73,North,-999,-999.0,-999.0,42,0.00,,,0.04,meteohub,2013-04-01 06:02:00,
2013-03-31 23:07:00,59.5,50.5,17.73,North,-999,-999.0,-999.0,42,0.00,,,0.04,meteohub,2013-04-01 06:07:00,
2013-03-31 23:12:00,59.4,50.4,17.73,North,-999,-999.0,-999.0,42,0.00,,,0.04,meteohub,2013-04-01 06:12:00,
2013-03-31 23:17:00,59.4,50.4,17.73,North,-999,-999.0,-999.0,42,0.00,,,0.04,meteohub,2013-04-01 06:17:00,
2013-03-31 23:22:00,59.2,50.2,17.73,North,-999,-999.0,-999.0,42,0.00,,,0.04,meteohub,2013-04-01 06:22:00,
2013-03-31 23:27:00,59.2,50.5,17.73,North,-999,-999.0,-999.0,42,0.00,,,0.04,meteohub,2013-04-01 06:27:00,
2013-03-31 23:32:00,59.2,50.5,17.73,North,-999,-999.0,-999.0,42,0.00,,,0.04,meteohub,2013-04-01 06:32:00,
2013-03-31 23:38:00,59.2,50.5,17.73,North,-999,-999.0,-999.0,42,0.00,,,0.04,meteohub,2013-04-01 06:38:00,
2013-03-31 23:43:00,59.2,50.5,17.73,North,-999,-999.0,-999.0,43,0.00,,,0.04,meteohub,2013-04-01 06:43:00,
2013-03-31 23:48:00,59.2,50.5,17.73,North,-999,-999.0,-999.0,43,0.00,,,0.04,meteohub,2013-04-01 06:48:00,
2013-03-31 23:54:00,59.0,50.4,17.73,North,-999,-999.0,-999.0,43,0.00,,,0.04,meteohub,2013-04-01 06:54:00,
2013-03-31 23:59:00,59.0,50.4,17.73,North,-999,-999.0,-999.0,43,0.00,,,0.04,meteohub,2013-04-01 06:59:00,